Tracking 18980 objects as of 20-Feb-2018
HD Live streaming from Space Station
objects crossing your sky now

COSMOS 1617

Track COSMOS 1617 now!
10-day predictions
COSMOS 1617 is classified as:


NORAD ID: 15469
Int'l Code: 1985-003A
Perigee: 1,419.0 km
Apogee: 1,420.8 km
Inclination: 82.6 °
Period: 114.1 minutes
Semi major axis: 7790 km
RCS: 1.0954 m2 (large)
Launch date: January 15, 1985
Source: Commonwealth of Independent States (former USSR) (CIS)
Launch site: PLESETSK MISSILE AND SPACE COMPLEX (PKMTR)
aabbcc
Your satellite tracking list
Your tracking list is empty




NASA's NSSDC Master Catalog

Two Line Element Set (TLE):
1 15469U 85003A   18050.63342441 +.00000024 +00000-0 +71924-4 0  9995
2 15469 082.6085 247.1958 0001116 004.6643 057.2083 12.62467957524885
Source of the keplerian elements: AFSPC